CW7693 Weather Reports


time (UTC)temp
C
wind
direction
speed
KPH
gust
KPH
rain 1hr
cm
rain 24hr
cm
rain mn
cm
humidity
%
barometer
mb
20260507220003 7 157 0.0 0.0 0.00 0.00 0.00 88 1015.2
20260507214608 7 157 0.0 0.0 0.00 0.00 0.00 88 1015.1
20260507213003 7 157 0.0 0.0 0.00 0.00 0.00 87 1014.9
20260507211503 8 157 0.0 0.0 0.00 0.00 0.00 87 1014.9
20260507210107 8 157 0.0 0.0 0.00 0.00 0.00 87 1014.8
20260507204502 8 157 0.0 0.0 0.00 0.00 0.00 86 1014.8
20260507203111 8 157 0.0 3.2 0.00 0.00 0.00 85 1014.8
20260507201503 10 115 0.0 1.6 0.00 0.00 0.00 84 1014.8
20260507200111 10 53 0.0 4.8 0.00 0.00 0.00 83 1014.7
20260507194504 10 83 0.0 4.8 0.00 0.00 0.00 82 1014.5
20260507193103 11 17 0.0 0.0 0.00 0.00 0.00 82 1014.3
20260507191502 11 24 0.0 0.0 0.00 0.00 0.00 82 1014.1
20260507190005 11 24 0.0 0.0 0.00 0.00 0.00 81 1014.0
20260507184603 11 302 0.0 4.8 0.00 0.00 0.00 80 1013.8
20260507183009 12 360 0.0 0.0 0.00 0.00 0.00 78 1013.7
20260507181605 12 360 0.0 1.6 0.00 0.00 0.00 76 1013.5
20260507180006 12 93 0.0 0.0 0.00 0.00 0.00 75 1013.5
20260507174605 12 360 0.0 0.0 0.00 0.00 0.00 75 1013.4
20260507173005 12 96 0.0 0.0 0.00 0.00 0.00 73 1013.3
20260507171606 12 94 0.0 0.0 0.00 0.00 0.00 72 1013.3
20260507170003 12 96 0.0 0.0 0.00 0.00 0.00 74 1013.2
20260507164607 12 360 0.0 4.8 0.00 0.33 0.00 73 1013.2
20260507163002 13 360 1.6 4.8 0.00 0.33 0.00 72 1013.2
20260507161604 12 360 0.0 3.2 0.00 0.33 0.00 71 1013.2
20260507160001 13 313 4.8 9.7 0.00 0.33 0.00 70 1013.3
20260507153002 13 360 6.4 14.5 0.00 0.33 0.00 68 1013.0
20260507151602 13 44 4.8 12.9 0.00 0.33 0.00 68 1012.8
20260507150006 13 360 8.0 14.5 0.00 0.33 0.00 67 1012.9
20260507144506 13 339 8.0 20.9 0.00 0.33 0.00 67 1012.9
20260507143114 13 339 8.0 12.9 0.00 0.33 0.00 66 1013.0
20260507141502 13 325 8.0 16.1 0.00 0.33 0.00 64 1012.9
20260507134502 13 350 6.4 14.5 0.00 0.33 0.00 63 1012.9
20260507133134 14 330 4.8 12.9 0.00 0.33 0.00 59 1013.0
20260507131503 14 271 0.0 12.9 0.00 0.33 0.00 59 1013.0
20260507130110 13 309 4.8 12.9 0.00 0.33 0.00 60 1012.9
20260507124504 13 360 9.7 20.9 0.00 0.71 0.00 64 1012.9
20260507123102 13 342 8.0 17.7 0.00 0.71 0.00 64 1012.8
20260507121503 13 12 8.0 17.7 0.00 0.71 0.00 64 1012.6
20260507120110 13 13 9.7 14.5 0.00 0.71 0.00 65 1012.6
20260507114503 14 350 11.3 17.7 0.00 0.71 0.00 63 1012.8
20260507113104 14 360 4.8 12.9 0.00 0.71 0.00 62 1012.7
20260507111503 13 30 6.4 17.7 0.00 0.71 0.00 64 1012.8
20260507110103 14 85 11.3 17.7 0.00 0.71 0.00 62 1012.9
20260507104503 14 13 4.8 9.7 0.00 0.71 0.00 63 1013.0
20260507103102 13 122 4.8 12.9 0.00 0.71 0.00 61 1013.1
20260507101614 13 109 3.2 8.0 0.00 0.71 0.00 60 1013.2
20260507100002 13 88 3.2 11.3 0.00 0.71 0.00 60 1013.2
20260507094606 13 174 0.0 12.9 0.00 0.71 0.00 62 1013.3
20260507093003 12 360 1.6 9.7 0.00 0.71 0.00 66 1013.4
20260507091603 11 360 1.6 12.9 0.00 0.71 0.00 69 1013.4
20260507090008 11 360 3.2 11.3 0.00 0.71 0.00 73 1013.3
20260507084603 11 360 1.6 6.4 0.00 0.71 0.00 73 1013.2
20260507083003 10 221 1.6 8.0 0.00 0.71 0.00 77 1013.2
20260507081602 10 288 1.6 6.4 0.00 0.71 0.00 80 1013.1
20260507080003 9 11 0.0 6.4 0.00 0.71 0.00 84 1013.0
20260507074603 9 32 3.2 6.4 0.00 0.71 0.00 85 1013.0
20260507073003 9 355 3.2 9.7 0.00 0.71 0.00 84 1013.0
20260507071602 9 329 3.2 8.0 0.00 0.71 0.00 83 1012.9
20260507070004 9 18 0.0 6.4 0.00 0.71 0.00 85 1012.8
20260507064605 9 15 1.6 4.8 0.00 0.71 0.00 87 1012.5
20260507063002 8 125 0.0 0.0 0.00 0.71 0.00 88 1012.6
20260507061603 8 125 0.0 0.0 0.00 0.71 0.00 89 1012.6
20260507060003 8 161 0.0 3.2 0.00 0.71 0.00 90 1012.4
20260507054602 8 163 0.0 4.8 0.00 0.71 0.00 90 1012.3
20260507053003 7 147 1.6 8.0 0.00 0.71 0.00 90 1012.1
20260507051610 7 155 4.8 8.0 0.00 0.71 0.00 90 1012.0
20260507050002 7 158 4.8 6.4 0.00 0.71 0.00 90 1011.8
20260507044601 7 251 1.6 4.8 0.00 0.71 0.00 91 1011.7
20260507043008 7 117 3.2 6.4 0.00 0.71 0.00 91 1011.3
20260507041602 7 129 1.6 4.8 0.00 0.71 0.00 91 1011.4
20260507040003 7 136 1.6 6.4 0.00 0.71 0.00 90 1011.2
20260507034503 7 159 3.2 6.4 0.00 0.71 0.00 90 1011.2
20260507033112 7 142 1.6 4.8 0.00 0.71 0.00 89 1011.1
20260507031502 7 136 3.2 6.4 0.00 0.71 0.00 88 1011.0
20260507024508 7 109 0.0 3.2 0.00 0.71 0.00 89 1010.9
20260507023102 8 109 0.0 0.0 0.00 0.71 0.00 89 1010.8
20260507021502 8 109 0.0 4.8 0.00 0.71 0.00 90 1010.9
20260507020115 7 55 0.0 4.8 0.00 0.71 0.00 91 1010.7
20260507014502 7 63 0.0 8.0 0.00 0.71 0.00 92 1010.5
20260507013102 7 87 0.0 3.2 0.00 0.71 0.00 92 1010.5
20260507011509 8 82 0.0 6.4 0.00 0.71 0.00 92 1010.5
20260507010104 8 138 1.6 4.8 0.00 0.71 0.00 92 1010.4
20260507004504 8 141 3.2 8.0 0.00 0.71 0.00 91 1010.2
20260507003101 8 139 0.0 3.2 0.00 0.71 0.00 91 1010.3
20260507001504 8 138 1.6 4.8 0.00 0.71 0.00 91 1010.3
20260506234502 8 121 0.0 0.0 0.00 0.71 0.00 91 1010.4
20260506233112 8 121 0.0 3.2 0.00 0.71 0.00 91 1010.3
20260506231503 8 80 3.2 6.4 0.00 0.71 0.00 91 1010.3
20260506230103 8 132 1.6 8.0 0.00 0.71 0.00 91 1010.1
20260506224502 8 154 0.0 3.2 0.00 0.71 0.00 91 1010.2
20260506223106 8 153 0.0 0.0 0.00 0.71 0.00 91 1010.2
20260506221612 8 153 0.0 4.8 0.00 0.71 0.00 91 1010.1